Regional Weather Roundup
Issued by NWS

Home | Current Version | Previous Version | Text Only | Print | Product List | Glossary Off
Versions: 1 2 3 4 5 6 7 8 9 10 11 12 13 14 15 16 17 18 19 20 21 22 23 24 25 26 27 28 29 30 31 32 33 34 35 36 37 38 39 40 41 42 43 44 45 46 47 48 49 50

000
ASUS43 KOAX 011902
RWRNE
WEATHER ROUNDUP FOR NEBRASKA
NATIONAL WEATHER SERVICE OMAHA NE
200 PM CDT MON JUN 01 2015

NOTES: SATELLITE DATA IS BEING USED TO AUGMENT CLOUD COVER ABOVE
       12000 FEET.
       "FAIR" INDICATES FEW OR NO CLOUDS BELOW 12,000 FEET WITH NO
       SIGNIFICANT WEATHER AND/OR OBSTRUCTIONS TO VISIBILITY.

  * THESE STATIONS DO NOT REPORT WEATHER SUCH AS RAIN...SNOW OR FOG.

NEZ001>004-019>022-054>056-012000-
NEBRASKA PANHANDLE

CITY           SKY/WX    TMP DP  RH WIND       PRES   REMARKS
SCOTTSBLUFF    SUNNY     83  58  42 SE13      29.97F
ALLIANCE       SUNNY     77  61  57 S15       30.00F
CHADRON        MOSUNNY   83  62  49 S14G23    29.92F
KIMBALL          N/A    N/A N/A N/A MISG        N/A
SIDNEY         SUNNY     79  61  53 SE12G20   30.04F
$$

NEZ057>060-069>072-079>082-012000-
SOUTHWEST NEBRASKA

CITY           SKY/WX    TMP DP  RH WIND       PRES   REMARKS
NORTH PLATTE   PTSUNNY   69  59  70 SE12      30.04F
IMPERIAL       SUNNY     75  62  64 SE14      30.02F
LEXINGTON      MOSUNNY   71  62  72 S14       30.06S
MCCOOK         SUNNY     78  61  55 S13       30.02F
$$

NEZ005>010-023>029-035>040-094-012000-
NORTH CENTRAL NEBRASKA

CITY           SKY/WX    TMP DP  RH WIND       PRES   REMARKS
VALENTINE      SUNNY     79  58  48 S22G32    29.98F
AINSWORTH      SUNNY     75  61  60 S17G24    30.01F
BROKEN BOW     MOSUNNY   77  60  55 S15G24    30.04F
ORD            MOSUNNY   76  58  53 S15G22    30.03F
$$

NEZ041-046>049-061>064-073>077-083>087-012000-
SOUTH CENTRAL NEBRASKA

CITY           SKY/WX    TMP DP  RH WIND       PRES   REMARKS
GRAND ISLAND   MOSUNNY   75  56  51 SE13G22   30.08F
HASTINGS       MOSUNNY   73  58  59 SE16G23   30.07F
KEARNEY *      PTSUNNY   75  57  53 S20G28    30.06F
$$

NEZ011>018-030>034-042>045-012000-
NORTHEAST NEBRASKA

CITY           SKY/WX    TMP DP  RH WIND       PRES   REMARKS
NORFOLK        SUNNY     76  51  41 S16G23    30.07F
COLUMBUS *     SUNNY     75  50  41 S10       30.10F
FREMONT        SUNNY     73  52  47 E13G18    30.12F
TEKAMAH        MOSUNNY   75  52  44 S15       30.11F
$$

NEZ050>053-065>068-078-088>093-012000-
SOUTHEAST NEBRASKA

CITY           SKY/WX    TMP DP  RH WIND       PRES   REMARKS
LINCOLN        SUNNY     75  54  47 S12G22    30.11F
OMAHA EPPLEY   MOSUNNY   72  53  51 SE9       30.13F
FALLS CITY     PTSUNNY   69  55  60 E9        30.14F
NEBRASKA CITY  PTSUNNY   70  51  50 SE8       30.14F
$$

NEZ044-045-051>053-067-012000-
OMAHA AREA

CITY           SKY/WX    TMP DP  RH WIND       PRES   REMARKS
OMAHA EPPLEY   MOSUNNY   72  53  51 SE9       30.13F
FREMONT        SUNNY     73  52  47 E13G18    30.12F
OFFUTT AFB     SUNNY     72  55  53 SE12      30.12F
$$


USA.gov is the U.S. government's official web portal to all federal, state and local government web resources and services.